| time (UTC) | temp C | wind direction | speed KPH | gust KPH | rain 1hr cm | rain 24hr cm | rain mn cm | humidity % | barometer mb |
| 20260507114003 | 14 | 138 | 4.8 | 12.9 | 0.00 | 0.00 | 0.00 | 59 | 1017.9 |
| 20260507113506 | 14 | 86 | 4.8 | 14.5 | 0.00 | 0.00 | 0.00 | 59 | 1017.9 |
| 20260507113023 | 14 | 146 | 6.4 | 14.5 | 0.00 | 0.00 | 0.00 | 59 | 1018.0 |
| 20260507112509 | 14 | 123 | 4.8 | 14.5 | 0.00 | 0.00 | 0.00 | 61 | 1018.0 |
| 20260507112008 | 14 | 123 | 4.8 | 12.9 | 0.00 | 0.00 | 0.00 | 61 | 1018.1 |
| 20260507111523 | 14 | 169 | 3.2 | 12.9 | 0.00 | 0.00 | 0.00 | 60 | 1018.1 |
| 20260507111003 | 14 | 113 | 4.8 | 12.9 | 0.00 | 0.00 | 0.00 | 60 | 1018.1 |
| 20260507110507 | 14 | 97 | 4.8 | 16.1 | 0.00 | 0.00 | 0.00 | 61 | 1018.1 |
| 20260507110023 | 13 | 101 | 4.8 | 16.1 | 0.00 | 0.00 | 0.00 | 60 | 1018.1 |
| 20260507105511 | 13 | 107 | 3.2 | 12.9 | 0.00 | 0.00 | 0.00 | 62 | 1018.1 |
| 20260507105003 | 13 | 50 | 4.8 | 12.9 | 0.00 | 0.00 | 0.00 | 62 | 1018.1 |
| 20260507104520 | 13 | 119 | 6.4 | 12.9 | 0.00 | 0.00 | 0.00 | 60 | 1018.0 |
| 20260507104010 | 13 | 88 | 3.2 | 9.7 | 0.00 | 0.00 | 0.00 | 62 | 1018.0 |
| 20260507103503 | 13 | 73 | 3.2 | 12.9 | 0.00 | 0.00 | 0.00 | 61 | 1018.0 |
| 20260507103008 | 13 | 126 | 3.2 | 16.1 | 0.00 | 0.00 | 0.00 | 62 | 1018.1 |
| 20260507102503 | 13 | 101 | 6.4 | 16.1 | 0.00 | 0.00 | 0.00 | 62 | 1018.0 |
| 20260507102007 | 13 | 140 | 4.8 | 12.9 | 0.00 | 0.00 | 0.00 | 61 | 1018.0 |
| 20260507101521 | 13 | 140 | 4.8 | 12.9 | 0.00 | 0.00 | 0.00 | 60 | 1018.0 |
| 20260507101011 | 13 | 103 | 3.2 | 11.3 | 0.00 | 0.00 | 0.00 | 61 | 1018.0 |
| 20260507100507 | 13 | 107 | 4.8 | 11.3 | 0.00 | 0.00 | 0.00 | 62 | 1018.0 |
| 20260507100032 | 13 | 135 | 3.2 | 11.3 | 0.00 | 0.00 | 0.00 | 63 | 1017.9 |
| 20260507095507 | 13 | 121 | 3.2 | 11.3 | 0.00 | 0.00 | 0.00 | 63 | 1018.0 |
| 20260507095007 | 13 | 97 | 3.2 | 14.5 | 0.00 | 0.00 | 0.00 | 64 | 1018.0 |
| 20260507094523 | 13 | 115 | 4.8 | 11.3 | 0.00 | 0.00 | 0.00 | 62 | 1017.9 |
| 20260507094003 | 13 | 85 | 3.2 | 11.3 | 0.00 | 0.00 | 0.00 | 62 | 1017.9 |
| 20260507093510 | 13 | 174 | 3.2 | 11.3 | 0.00 | 0.00 | 0.00 | 63 | 1017.9 |
| 20260507093031 | 13 | 128 | 3.2 | 9.7 | 0.00 | 0.00 | 0.00 | 61 | 1017.8 |
| 20260507092512 | 13 | 62 | 3.2 | 9.7 | 0.00 | 0.00 | 0.00 | 60 | 1017.9 |
| 20260507092007 | 13 | 115 | 4.8 | 9.7 | 0.00 | 0.00 | 0.00 | 62 | 1017.7 |
| 20260507091511 | 13 | 142 | 1.6 | 12.9 | 0.00 | 0.00 | 0.00 | 61 | 1017.8 |
| 20260507091003 | 13 | 98 | 3.2 | 14.5 | 0.00 | 0.00 | 0.00 | 60 | 1017.9 |
| 20260507090507 | 13 | 130 | 4.8 | 14.5 | 0.00 | 0.00 | 0.00 | 61 | 1017.7 |
| 20260507090020 | 13 | 126 | 3.2 | 9.7 | 0.00 | 0.00 | 0.00 | 62 | 1017.7 |
| 20260507085506 | 13 | 75 | 3.2 | 9.7 | 0.00 | 0.00 | 0.00 | 63 | 1017.6 |
| 20260507085009 | 12 | 37 | 1.6 | 9.7 | 0.00 | 0.00 | 0.00 | 67 | 1017.6 |
| 20260507084538 | 12 | 65 | 3.2 | 9.7 | 0.00 | 0.00 | 0.00 | 65 | 1017.6 |
| 20260507084007 | 11 | 103 | 1.6 | 8.0 | 0.00 | 0.00 | 0.00 | 66 | 1017.6 |
| 20260507083510 | 11 | 112 | 1.6 | 8.0 | 0.00 | 0.00 | 0.00 | 66 | 1017.6 |
| 20260507083022 | 11 | 135 | 1.6 | 6.4 | 0.00 | 0.00 | 0.00 | 67 | 1017.6 |
| 20260507082506 | 11 | 94 | 1.6 | 6.4 | 0.00 | 0.00 | 0.00 | 67 | 1017.6 |
| 20260507082013 | 11 | 128 | 1.6 | 6.4 | 0.00 | 0.00 | 0.00 | 69 | 1017.6 |
| 20260507081529 | 11 | 98 | 3.2 | 6.4 | 0.00 | 0.00 | 0.00 | 69 | 1017.5 |
| 20260507081010 | 11 | 130 | 1.6 | 6.4 | 0.00 | 0.00 | 0.00 | 68 | 1017.5 |
| 20260507080507 | 11 | 119 | 3.2 | 6.4 | 0.00 | 0.00 | 0.00 | 68 | 1017.4 |
| 20260507080016 | 11 | 130 | 3.2 | 4.8 | 0.00 | 0.00 | 0.00 | 69 | 1017.4 |
| 20260507075506 | 11 | 100 | 1.6 | 4.8 | 0.00 | 0.00 | 0.00 | 69 | 1017.4 |
| 20260507075012 | 11 | 116 | 1.6 | 4.8 | 0.00 | 0.00 | 0.00 | 68 | 1017.3 |
| 20260507074522 | 11 | 58 | 1.6 | 6.4 | 0.00 | 0.00 | 0.00 | 69 | 1017.2 |
| 20260507074005 | 11 | 92 | 0.0 | 6.4 | 0.00 | 0.00 | 0.00 | 68 | 1017.3 |
| 20260507073506 | 11 | 44 | 1.6 | 6.4 | 0.00 | 0.00 | 0.00 | 66 | 1017.2 |
| 20260507073026 | 11 | 119 | 3.2 | 8.0 | 0.00 | 0.00 | 0.00 | 68 | 1017.3 |
| 20260507072509 | 11 | 138 | 3.2 | 8.0 | 0.00 | 0.00 | 0.00 | 69 | 1017.1 |
| 20260507072012 | 11 | 101 | 1.6 | 6.4 | 0.00 | 0.00 | 0.00 | 67 | 1017.1 |
| 20260507071520 | 11 | 84 | 1.6 | 6.4 | 0.00 | 0.00 | 0.00 | 68 | 1017.1 |
| 20260507071004 | 11 | 108 | 1.6 | 6.4 | 0.00 | 0.00 | 0.00 | 69 | 1017.1 |
| 20260507070504 | 11 | 92 | 1.6 | 9.7 | 0.00 | 0.00 | 0.00 | 69 | 1017.1 |
| 20260507070019 | 11 | 117 | 1.6 | 9.7 | 0.00 | 0.00 | 0.00 | 70 | 1017.1 |
| 20260507065502 | 11 | 69 | 1.6 | 4.8 | 0.00 | 0.00 | 0.00 | 71 | 1017.1 |
| 20260507065003 | 10 | 138 | 1.6 | 6.4 | 0.00 | 0.00 | 0.00 | 71 | 1017.1 |
| 20260507064513 | 10 | 121 | 1.6 | 6.4 | 0.00 | 0.00 | 0.00 | 70 | 1017.1 |
| 20260507064004 | 10 | 143 | 3.2 | 6.4 | 0.00 | 0.00 | 0.00 | 73 | 1017.0 |
| 20260507063506 | 10 | 107 | 1.6 | 4.8 | 0.00 | 0.00 | 0.00 | 74 | 1017.0 |
| 20260507063004 | 9 | 84 | 1.6 | 4.8 | 0.00 | 0.00 | 0.00 | 75 | 1017.1 |
| 20260507062503 | 9 | 145 | 1.6 | 4.8 | 0.00 | 0.00 | 0.00 | 75 | 1017.0 |
| 20260507062000 | 8 | 68 | 1.6 | 4.8 | 0.00 | 0.00 | 0.00 | 76 | 1017.0 |
| 20260507061508 | 8 | 32 | 0.0 | 4.8 | 0.00 | 0.00 | 0.00 | 77 | 1016.9 |
| 20260507061007 | 8 | 122 | 1.6 | 4.8 | 0.00 | 0.00 | 0.00 | 78 | 1016.9 |
| 20260507060504 | 8 | 36 | 1.6 | 4.8 | 0.00 | 0.00 | 0.00 | 79 | 1017.0 |
| 20260507060004 | 8 | 78 | 1.6 | 3.2 | 0.00 | 0.00 | 0.00 | 81 | 1016.9 |
| 20260507055506 | 7 | 305 | 0.0 | 3.2 | 0.00 | 0.00 | 0.00 | 82 | 1016.8 |
| 20260507055006 | 7 | 321 | 0.0 | 3.2 | 0.00 | 0.00 | 0.00 | 82 | 1016.8 |
| 20260507054505 | 7 | 321 | 0.0 | 3.2 | 0.00 | 0.00 | 0.00 | 82 | 1016.7 |
| 20260507054002 | 7 | 320 | 0.0 | 3.2 | 0.00 | 0.00 | 0.00 | 82 | 1016.6 |
| 20260507053507 | 7 | 340 | 0.0 | 3.2 | 0.00 | 0.00 | 0.00 | 82 | 1016.7 |
| 20260507053020 | 7 | 38 | 0.0 | 3.2 | 0.00 | 0.00 | 0.00 | 82 | 1016.6 |
| 20260507052504 | 7 | 44 | 0.0 | 3.2 | 0.00 | 0.00 | 0.00 | 82 | 1016.6 |
| 20260507052006 | 7 | 53 | 0.0 | 3.2 | 0.00 | 0.00 | 0.00 | 82 | 1016.6 |
| 20260507051504 | 7 | 14 | 0.0 | 3.2 | 0.00 | 0.00 | 0.00 | 82 | 1016.6 |
| 20260507051006 | 7 | 15 | 0.0 | 3.2 | 0.00 | 0.00 | 0.00 | 81 | 1016.5 |
| 20260507050503 | 7 | 15 | 0.0 | 3.2 | 0.00 | 0.00 | 0.00 | 81 | 1016.5 |
| 20260507050027 | 7 | 15 | 0.0 | 3.2 | 0.00 | 0.00 | 0.00 | 80 | 1016.5 |
| 20260507045506 | 7 | 21 | 0.0 | 3.2 | 0.00 | 0.00 | 0.00 | 80 | 1016.5 |
| 20260507045004 | 7 | 34 | 0.0 | 3.2 | 0.00 | 0.00 | 0.00 | 79 | 1016.4 |
| 20260507044519 | 7 | 69 | 0.0 | 3.2 | 0.00 | 0.00 | 0.00 | 79 | 1016.3 |
| 20260507044004 | 7 | 71 | 0.0 | 3.2 | 0.00 | 0.00 | 0.00 | 79 | 1016.3 |
| 20260507043506 | 7 | 26 | 0.0 | 3.2 | 0.00 | 0.00 | 0.00 | 79 | 1016.3 |
| 20260507043006 | 7 | 26 | 0.0 | 3.2 | 0.00 | 0.00 | 0.00 | 78 | 1016.3 |
| 20260507042508 | 7 | 26 | 0.0 | 3.2 | 0.00 | 0.00 | 0.00 | 78 | 1016.1 |
| 20260507042010 | 7 | 26 | 0.0 | 3.2 | 0.00 | 0.00 | 0.00 | 78 | 1016.1 |
| 20260507041507 | 7 | 75 | 0.0 | 4.8 | 0.00 | 0.00 | 0.00 | 78 | 1016.1 |
| 20260507041003 | 7 | 55 | 0.0 | 4.8 | 0.00 | 0.00 | 0.00 | 78 | 1016.1 |
| 20260507040504 | 7 | 50 | 1.6 | 4.8 | 0.00 | 0.00 | 0.00 | 78 | 1016.1 |
| 20260507040004 | 7 | 63 | 1.6 | 4.8 | 0.00 | 0.00 | 0.00 | 78 | 1016.0 |
| 20260507035504 | 7 | 58 | 0.0 | 4.8 | 0.00 | 0.00 | 0.00 | 78 | 1016.0 |
| 20260507035004 | 7 | 76 | 0.0 | 3.2 | 0.00 | 0.00 | 0.00 | 78 | 1016.0 |
| 20260507034505 | 7 | 63 | 0.0 | 4.8 | 0.00 | 0.00 | 0.00 | 78 | 1016.0 |
| 20260507034008 | 7 | 63 | 1.6 | 4.8 | 0.00 | 0.00 | 0.00 | 78 | 1015.9 |
| 20260507033504 | 7 | 52 | 1.6 | 3.2 | 0.00 | 0.00 | 0.00 | 78 | 1016.0 |
| 20260507033026 | 7 | 57 | 0.0 | 3.2 | 0.00 | 0.00 | 0.00 | 78 | 1015.9 |
| 20260507032503 | 7 | 57 | 0.0 | 3.2 | 0.00 | 0.00 | 0.00 | 77 | 1016.0 |
| 20260507032005 | 7 | 41 | 0.0 | 3.2 | 0.00 | 0.00 | 0.00 | 76 | 1015.9 |
| 20260507031506 | 7 | 46 | 0.0 | 3.2 | 0.00 | 0.00 | 0.00 | 76 | 1016.0 |
| 20260507031003 | 7 | 46 | 0.0 | 4.8 | 0.00 | 0.00 | 0.00 | 76 | 1016.0 |
| 20260507030503 | 7 | 49 | 0.0 | 4.8 | 0.00 | 0.00 | 0.00 | 76 | 1016.0 |
| 20260507030007 | 8 | 28 | 0.0 | 6.4 | 0.00 | 0.00 | 0.00 | 76 | 1016.0 |
| 20260507025502 | 8 | 36 | 1.6 | 6.4 | 0.00 | 0.00 | 0.00 | 76 | 1016.0 |
| 20260507025008 | 8 | 36 | 0.0 | 4.8 | 0.00 | 0.00 | 0.00 | 75 | 1016.0 |
| 20260507024515 | 8 | 27 | 1.6 | 6.4 | 0.00 | 0.00 | 0.00 | 75 | 1016.1 |
| 20260507024004 | 8 | 28 | 0.0 | 6.4 | 0.00 | 0.00 | 0.00 | 75 | 1016.1 |
| 20260507023505 | 8 | 48 | 1.6 | 6.4 | 0.00 | 0.00 | 0.00 | 75 | 1016.1 |
| 20260507023009 | 8 | 89 | 1.6 | 6.4 | 0.00 | 0.00 | 0.00 | 75 | 1016.0 |
| 20260507022506 | 8 | 39 | 1.6 | 6.4 | 0.00 | 0.00 | 0.00 | 76 | 1016.0 |
| 20260507022006 | 8 | 61 | 1.6 | 6.4 | 0.00 | 0.00 | 0.00 | 76 | 1016.0 |
| 20260507021512 | 8 | 28 | 1.6 | 6.4 | 0.00 | 0.00 | 0.00 | 77 | 1016.0 |
| 20260507021003 | 8 | 47 | 1.6 | 6.4 | 0.00 | 0.00 | 0.00 | 77 | 1015.9 |
| 20260507020506 | 8 | 90 | 0.0 | 3.2 | 0.00 | 0.00 | 0.00 | 76 | 1015.9 |
| 20260507020005 | 8 | 40 | 0.0 | 6.4 | 0.00 | 0.00 | 0.00 | 76 | 1015.8 |
| 20260507015506 | 8 | 55 | 1.6 | 8.0 | 0.00 | 0.00 | 0.00 | 75 | 1015.8 |
| 20260507015004 | 8 | 38 | 1.6 | 8.0 | 0.00 | 0.00 | 0.00 | 75 | 1015.8 |
| 20260507014509 | 8 | 30 | 1.6 | 8.0 | 0.00 | 0.00 | 0.00 | 76 | 1015.8 |
| 20260507014002 | 8 | 96 | 1.6 | 6.4 | 0.00 | 0.00 | 0.00 | 76 | 1015.8 |
| 20260507013504 | 8 | 352 | 0.0 | 6.4 | 0.00 | 0.00 | 0.00 | 76 | 1015.7 |
| 20260507013012 | 8 | 38 | 0.0 | 6.4 | 0.00 | 0.00 | 0.00 | 75 | 1015.7 |
| 20260507012505 | 8 | 29 | 1.6 | 6.4 | 0.00 | 0.00 | 0.00 | 75 | 1015.8 |
| 20260507012003 | 8 | 96 | 1.6 | 4.8 | 0.00 | 0.00 | 0.00 | 75 | 1015.8 |
| 20260507011516 | 8 | 38 | 0.0 | 6.4 | 0.00 | 0.00 | 0.00 | 76 | 1015.7 |
| 20260507011006 | 8 | 69 | 1.6 | 6.4 | 0.00 | 0.00 | 0.00 | 76 | 1015.7 |
| 20260507010504 | 8 | 339 | 1.6 | 6.4 | 0.00 | 0.00 | 0.00 | 76 | 1015.7 |
| 20260507010023 | 8 | 82 | 1.6 | 6.4 | 0.00 | 0.00 | 0.00 | 76 | 1015.7 |
| 20260507005507 | 8 | 36 | 0.0 | 4.8 | 0.00 | 0.00 | 0.00 | 76 | 1015.7 |
| 20260507005012 | 8 | 46 | 0.0 | 4.8 | 0.00 | 0.00 | 0.00 | 76 | 1015.6 |
| 20260507004503 | 8 | 59 | 0.0 | 3.2 | 0.00 | 0.00 | 0.00 | 76 | 1015.7 |
| 20260507004003 | 8 | 46 | 0.0 | 4.8 | 0.00 | 0.00 | 0.00 | 75 | 1015.6 |
| 20260507003503 | 8 | 75 | 0.0 | 6.4 | 0.00 | 0.00 | 0.00 | 75 | 1015.7 |
| 20260507003009 | 8 | 62 | 1.6 | 6.4 | 0.00 | 0.00 | 0.00 | 75 | 1015.6 |
| 20260507002503 | 8 | 42 | 1.6 | 6.4 | 0.00 | 0.00 | 0.00 | 75 | 1015.6 |
| 20260507002004 | 8 | 68 | 1.6 | 9.7 | 0.00 | 0.00 | 0.00 | 75 | 1015.6 |
| 20260507001512 | 8 | 55 | 3.2 | 9.7 | 0.00 | 0.00 | 0.00 | 75 | 1015.6 |
| 20260507001004 | 8 | 112 | 1.6 | 6.4 | 0.00 | 0.00 | 0.00 | 76 | 1015.6 |
| 20260507000503 | 8 | 29 | 0.0 | 6.4 | 0.00 | 0.00 | 0.00 | 76 | 1015.7 |
| 20260507000020 | 8 | 61 | 1.6 | 8.0 | 0.00 | 0.00 | 0.00 | 75 | 1015.7 |
| 20260506235507 | 8 | 78 | 3.2 | 12.9 | 0.00 | 0.00 | 0.00 | 75 | 1015.7 |
| 20260506235007 | 8 | 63 | 1.6 | 12.9 | 0.00 | 0.00 | 0.00 | 74 | 1015.7 |
| 20260506234518 | 8 | 51 | 0.0 | 9.7 | 0.00 | 0.00 | 0.00 | 74 | 1015.7 |
| 20260506234007 | 9 | 63 | 3.2 | 9.7 | 0.00 | 0.00 | 0.00 | 74 | 1015.6 |
| 20260506233503 | 9 | 74 | 1.6 | 9.7 | 0.00 | 0.00 | 0.00 | 75 | 1015.6 |
| 20260506233006 | 9 | 110 | 1.6 | 9.7 | 0.00 | 0.00 | 0.00 | 74 | 1015.7 |
| 20260506232502 | 9 | 59 | 3.2 | 9.7 | 0.00 | 0.00 | 0.00 | 74 | 1015.7 |
| 20260506232003 | 9 | 54 | 1.6 | 9.7 | 0.00 | 0.00 | 0.00 | 75 | 1015.6 |
| 20260506231512 | 9 | 90 | 3.2 | 9.7 | 0.00 | 0.00 | 0.00 | 76 | 1015.7 |
| 20260506231004 | 9 | 49 | 1.6 | 9.7 | 0.00 | 0.00 | 0.00 | 76 | 1015.7 |
| 20260506230504 | 9 | 52 | 0.0 | 6.4 | 0.00 | 0.00 | 0.00 | 77 | 1015.7 |
| 20260506230016 | 8 | 65 | 0.0 | 4.8 | 0.00 | 0.00 | 0.00 | 77 | 1015.7 |
| 20260506225504 | 8 | 56 | 1.6 | 8.0 | 0.00 | 0.00 | 0.00 | 77 | 1015.7 |
| 20260506225003 | 8 | 33 | 1.6 | 8.0 | 0.00 | 0.00 | 0.00 | 77 | 1015.7 |
| 20260506224520 | 8 | 5 | 1.6 | 6.4 | 0.00 | 0.00 | 0.00 | 77 | 1015.6 |
| 20260506224004 | 9 | 11 | 1.6 | 6.4 | 0.00 | 0.00 | 0.00 | 77 | 1015.7 |
| 20260506223506 | 9 | 36 | 1.6 | 9.7 | 0.00 | 0.00 | 0.00 | 77 | 1015.6 |
| 20260506223024 | 9 | 32 | 1.6 | 9.7 | 0.00 | 0.00 | 0.00 | 77 | 1015.6 |
| 20260506222508 | 9 | 101 | 1.6 | 9.7 | 0.00 | 0.00 | 0.00 | 77 | 1015.5 |
| 20260506222008 | 9 | 63 | 1.6 | 9.7 | 0.00 | 0.00 | 0.00 | 77 | 1015.6 |
| 20260506221509 | 9 | 44 | 0.0 | 8.0 | 0.00 | 0.00 | 0.00 | 76 | 1015.5 |
| 20260506221003 | 9 | 34 | 1.6 | 6.4 | 0.00 | 0.00 | 0.00 | 76 | 1015.5 |
| 20260506220503 | 9 | 40 | 1.6 | 6.4 | 0.00 | 0.00 | 0.00 | 77 | 1015.4 |
| 20260506220023 | 9 | 61 | 1.6 | 12.9 | 0.00 | 0.00 | 0.00 | 77 | 1015.4 |
| 20260506215503 | 9 | 78 | 3.2 | 12.9 | 0.00 | 0.00 | 0.00 | 77 | 1015.5 |
| 20260506215007 | 9 | 52 | 3.2 | 8.0 | 0.00 | 0.00 | 0.00 | 77 | 1015.4 |
| 20260506214512 | 8 | 44 | 1.6 | 8.0 | 0.00 | 0.00 | 0.00 | 77 | 1015.4 |
| 20260506214006 | 8 | 43 | 1.6 | 8.0 | 0.00 | 0.00 | 0.00 | 77 | 1015.4 |
| 20260506213510 | 8 | 58 | 3.2 | 9.7 | 0.00 | 0.00 | 0.00 | 76 | 1015.4 |
| 20260506213010 | 8 | 53 | 3.2 | 11.3 | 0.00 | 0.00 | 0.00 | 76 | 1015.4 |
| 20260506212505 | 8 | 59 | 3.2 | 11.3 | 0.00 | 0.00 | 0.00 | 76 | 1015.4 |
| 20260506212011 | 8 | 80 | 1.6 | 8.0 | 0.00 | 0.00 | 0.00 | 76 | 1015.4 |
| 20260506211529 | 8 | 71 | 1.6 | 8.0 | 0.00 | 0.00 | 0.00 | 75 | 1015.3 |
| 20260506211003 | 8 | 37 | 1.6 | 6.4 | 0.00 | 0.00 | 0.00 | 75 | 1015.2 |
| 20260506210505 | 8 | 336 | 0.0 | 8.0 | 0.00 | 0.00 | 0.00 | 75 | 1015.2 |
| 20260506210010 | 9 | 44 | 1.6 | 11.3 | 0.00 | 0.00 | 0.00 | 75 | 1015.2 |
| 20260506205502 | 9 | 51 | 1.6 | 11.3 | 0.00 | 0.00 | 0.00 | 75 | 1015.1 |
| 20260506205002 | 9 | 128 | 3.2 | 8.0 | 0.00 | 0.00 | 0.00 | 74 | 1015.1 |
| 20260506204518 | 9 | 34 | 1.6 | 8.0 | 0.00 | 0.00 | 0.00 | 75 | 1015.1 |
| 20260506204008 | 9 | 69 | 3.2 | 8.0 | 0.00 | 0.00 | 0.00 | 75 | 1015.0 |
| 20260506203502 | 9 | 66 | 1.6 | 8.0 | 0.00 | 0.00 | 0.00 | 74 | 1015.0 |
| 20260506203027 | 9 | 40 | 1.6 | 14.5 | 0.00 | 0.00 | 0.00 | 74 | 1015.0 |
| 20260506202507 | 9 | 33 | 3.2 | 14.5 | 0.00 | 0.00 | 0.00 | 74 | 1015.0 |
| 20260506202010 | 9 | 348 | 1.6 | 8.0 | 0.00 | 0.00 | 0.00 | 73 | 1015.0 |
| 20260506201515 | 9 | 30 | 1.6 | 8.0 | 0.00 | 0.00 | 0.00 | 74 | 1015.1 |
| 20260506201008 | 9 | 25 | 1.6 | 8.0 | 0.00 | 0.00 | 0.00 | 74 | 1015.1 |
| 20260506200504 | 9 | 5 | 1.6 | 8.0 | 0.00 | 0.00 | 0.00 | 75 | 1015.0 |
| 20260506200010 | 9 | 326 | 3.2 | 9.7 | 0.00 | 0.00 | 0.00 | 75 | 1015.0 |
| 20260506195503 | 9 | 30 | 3.2 | 9.7 | 0.00 | 0.00 | 0.00 | 74 | 1015.0 |
| 20260506195003 | 9 | 78 | 3.2 | 8.0 | 0.00 | 0.00 | 0.00 | 75 | 1014.9 |
| 20260506194511 | 9 | 38 | 3.2 | 11.3 | 0.00 | 0.00 | 0.00 | 75 | 1015.0 |
| 20260506194006 | 9 | 19 | 3.2 | 16.1 | 0.00 | 0.00 | 0.00 | 75 | 1014.9 |
| 20260506193504 | 9 | 65 | 4.8 | 16.1 | 0.00 | 0.00 | 0.00 | 74 | 1014.8 |
| 20260506193004 | 9 | 54 | 3.2 | 8.0 | 0.00 | 0.00 | 0.00 | 74 | 1014.9 |
| 20260506192502 | 9 | 59 | 3.2 | 16.1 | 0.00 | 0.00 | 0.00 | 74 | 1014.7 |
| 20260506192007 | 10 | 153 | 3.2 | 16.1 | 0.00 | 0.00 | 0.00 | 74 | 1014.6 |
| 20260506191522 | 10 | 360 | 4.8 | 16.1 | 0.00 | 0.00 | 0.00 | 74 | 1014.6 |
| 20260506191003 | 10 | 346 | 3.2 | 12.9 | 0.00 | 0.00 | 0.00 | 74 | 1014.5 |
| 20260506190504 | 10 | 43 | 3.2 | 9.7 | 0.00 | 0.00 | 0.00 | 75 | 1014.5 |
| 20260506190008 | 10 | 40 | 3.2 | 12.9 | 0.00 | 0.00 | 0.00 | 75 | 1014.4 |
| 20260506185503 | 10 | 54 | 3.2 | 12.9 | 0.00 | 0.00 | 0.00 | 74 | 1014.4 |
| 20260506185003 | 10 | 52 | 3.2 | 9.7 | 0.00 | 0.00 | 0.00 | 74 | 1014.4 |
| 20260506184514 | 10 | 313 | 3.2 | 8.0 | 0.00 | 0.00 | 0.00 | 74 | 1014.3 |
| 20260506184004 | 10 | 49 | 1.6 | 8.0 | 0.00 | 0.00 | 0.00 | 74 | 1014.2 |
| 20260506183504 | 10 | 36 | 3.2 | 9.7 | 0.00 | 0.00 | 0.00 | 74 | 1014.1 |
| 20260506183014 | 10 | 105 | 1.6 | 9.7 | 0.00 | 0.00 | 0.00 | 74 | 1014.1 |
| 20260506182506 | 10 | 26 | 3.2 | 9.7 | 0.00 | 0.00 | 0.00 | 74 | 1014.1 |
| 20260506182003 | 10 | 49 | 3.2 | 9.7 | 0.00 | 0.00 | 0.00 | 73 | 1014.1 |
| 20260506181518 | 10 | 49 | 1.6 | 9.7 | 0.00 | 0.00 | 0.00 | 73 | 1014.0 |
| 20260506181007 | 10 | 90 | 1.6 | 9.7 | 0.00 | 0.00 | 0.00 | 73 | 1013.9 |
| 20260506180510 | 10 | 46 | 3.2 | 14.5 | 0.00 | 0.00 | 0.00 | 73 | 1013.8 |
| 20260506180014 | 10 | 49 | 3.2 | 14.5 | 0.00 | 0.00 | 0.00 | 72 | 1013.8 |
| 20260506175503 | 10 | 140 | 4.8 | 14.5 | 0.00 | 0.00 | 0.00 | 72 | 1013.8 |
| 20260506175007 | 10 | 26 | 3.2 | 14.5 | 0.00 | 0.00 | 0.00 | 72 | 1013.7 |
| 20260506174508 | 10 | 73 | 4.8 | 16.1 | 0.00 | 0.00 | 0.00 | 72 | 1013.6 |
| 20260506174004 | 11 | 352 | 3.2 | 17.7 | 0.00 | 0.00 | 0.00 | 72 | 1013.5 |
| 20260506173504 | 11 | 115 | 4.8 | 17.7 | 0.00 | 0.00 | 0.00 | 72 | 1013.5 |
| 20260506173014 | 11 | 91 | 4.8 | 12.9 | 0.00 | 0.00 | 0.00 | 71 | 1013.6 |
| 20260506172504 | 11 | 38 | 3.2 | 16.1 | 0.00 | 0.00 | 0.00 | 71 | 1013.5 |
| 20260506172004 | 11 | 112 | 4.8 | 16.1 | 0.00 | 0.00 | 0.00 | 69 | 1013.5 |
| 20260506171525 | 11 | 102 | 4.8 | 12.9 | 0.00 | 0.00 | 0.00 | 68 | 1013.5 |
| 20260506171007 | 12 | 110 | 4.8 | 16.1 | 0.00 | 0.00 | 0.00 | 68 | 1013.5 |
| 20260506170503 | 12 | 71 | 4.8 | 16.1 | 0.00 | 0.00 | 0.00 | 67 | 1013.6 |
| 20260506170020 | 12 | 60 | 6.4 | 16.1 | 0.00 | 0.00 | 0.00 | 65 | 1013.5 |
| 20260506165508 | 12 | 55 | 4.8 | 14.5 | 0.00 | 0.00 | 0.00 | 66 | 1013.5 |
| 20260506165003 | 12 | 59 | 6.4 | 16.1 | 0.00 | 0.00 | 0.00 | 65 | 1013.4 |
| 20260506164519 | 12 | 58 | 6.4 | 16.1 | 0.00 | 0.00 | 0.00 | 66 | 1013.5 |
| 20260506164008 | 12 | 100 | 4.8 | 17.7 | 0.00 | 0.00 | 0.00 | 66 | 1013.5 |
| 20260506163511 | 12 | 82 | 6.4 | 17.7 | 0.00 | 0.00 | 0.00 | 67 | 1013.5 |
| 20260506163008 | 12 | 123 | 4.8 | 14.5 | 0.00 | 0.00 | 0.00 | 68 | 1013.4 |
| 20260506162504 | 13 | 69 | 3.2 | 14.5 | 0.00 | 0.00 | 0.00 | 67 | 1013.5 |
| 20260506162004 | 13 | 89 | 4.8 | 14.5 | 0.00 | 0.00 | 0.00 | 67 | 1013.4 |
| 20260506161516 | 12 | 34 | 8.0 | 17.7 | 0.00 | 0.00 | 0.00 | 67 | 1013.3 |
| 20260506161003 | 12 | 140 | 4.8 | 17.7 | 0.00 | 0.00 | 0.00 | 68 | 1013.3 |
| 20260506160508 | 12 | 122 | 4.8 | 14.5 | 0.00 | 0.00 | 0.00 | 69 | 1013.3 |
| 20260506160032 | 12 | 134 | 4.8 | 16.1 | 0.00 | 0.00 | 0.00 | 68 | 1013.3 |
| 20260506155503 | 12 | 101 | 4.8 | 16.1 | 0.00 | 0.00 | 0.00 | 68 | 1013.3 |
| 20260506155010 | 12 | 9 | 6.4 | 16.1 | 0.00 | 0.00 | 0.00 | 67 | 1013.3 |
| 20260506154530 | 12 | 162 | 4.8 | 14.5 | 0.00 | 0.00 | 0.00 | 68 | 1013.3 |
| 20260506154011 | 13 | 66 | 4.8 | 14.5 | 0.00 | 0.00 | 0.00 | 66 | 1013.3 |
| 20260506153504 | 13 | 107 | 4.8 | 17.7 | 0.00 | 0.00 | 0.00 | 66 | 1013.3 |
| 20260506153023 | 13 | 111 | 8.0 | 16.1 | 0.00 | 0.00 | 0.00 | 65 | 1013.4 |
| 20260506152508 | 13 | 84 | 4.8 | 16.1 | 0.00 | 0.00 | 0.00 | 66 | 1013.3 |
| 20260506152004 | 13 | 360 | 4.8 | 16.1 | 0.00 | 0.00 | 0.00 | 67 | 1013.3 |
| 20260506151517 | 13 | 44 | 6.4 | 16.1 | 0.00 | 0.00 | 0.00 | 66 | 1013.3 |
| 20260506151004 | 13 | 53 | 8.0 | 16.1 | 0.00 | 0.00 | 0.00 | 65 | 1013.3 |
| 20260506150506 | 12 | 35 | 4.8 | 16.1 | 0.00 | 0.00 | 0.00 | 66 | 1013.2 |
| 20260506150026 | 12 | 30 | 6.4 | 16.1 | 0.00 | 0.00 | 0.00 | 65 | 1013.2 |
| 20260506145505 | 13 | 87 | 6.4 | 12.9 | 0.00 | 0.00 | 0.00 | 64 | 1013.3 |
| 20260506145008 | 13 | 74 | 4.8 | 14.5 | 0.00 | 0.00 | 0.00 | 66 | 1013.3 |
| 20260506144514 | 13 | 57 | 6.4 | 16.1 | 0.00 | 0.00 | 0.00 | 66 | 1013.3 |
| 20260506144018 | 13 | 70 | 4.8 | 16.1 | 0.00 | 0.00 | 0.00 | 66 | 1013.3 |
| 20260506143516 | 13 | 34 | 3.2 | 9.7 | 0.00 | 0.00 | 0.00 | 67 | 1013.2 |
| 20260506143040 | 13 | 308 | 4.8 | 14.5 | 0.00 | 0.00 | 0.00 | 66 | 1013.2 |
| 20260506142505 | 13 | 43 | 4.8 | 14.5 | 0.00 | 0.00 | 0.00 | 67 | 1013.2 |
| 20260506142006 | 13 | 94 | 6.4 | 14.5 | 0.00 | 0.00 | 0.00 | 66 | 1013.2 |
| 20260506141525 | 13 | 115 | 6.4 | 14.5 | 0.00 | 0.00 | 0.00 | 65 | 1013.2 |
| 20260506141007 | 13 | 117 | 6.4 | 14.5 | 0.00 | 0.00 | 0.00 | 65 | 1013.2 |
| 20260506140504 | 13 | 65 | 6.4 | 16.1 | 0.00 | 0.00 | 0.00 | 64 | 1013.2 |
| 20260506140014 | 13 | 92 | 4.8 | 16.1 | 0.00 | 0.00 | 0.00 | 67 | 1013.3 |
| 20260506135506 | 13 | 76 | 3.2 | 14.5 | 0.00 | 0.00 | 0.00 | 69 | 1013.3 |
| 20260506135004 | 12 | 40 | 1.6 | 14.5 | 0.00 | 0.00 | 0.00 | 71 | 1013.3 |
| 20260506134519 | 12 | 86 | 4.8 | 12.9 | 0.00 | 0.00 | 0.00 | 70 | 1013.3 |
| 20260506134008 | 12 | 105 | 1.6 | 17.7 | 0.00 | 0.00 | 0.00 | 72 | 1013.2 |
| 20260506133507 | 12 | 91 | 4.8 | 17.7 | 0.00 | 0.00 | 0.00 | 70 | 1013.3 |
| 20260506133023 | 12 | 78 | 6.4 | 16.1 | 0.00 | 0.00 | 0.00 | 68 | 1013.3 |
| 20260506132513 | 12 | 40 | 6.4 | 16.1 | 0.00 | 0.00 | 0.00 | 68 | 1013.2 |
| 20260506132014 | 13 | 113 | 4.8 | 16.1 | 0.00 | 0.00 | 0.00 | 68 | 1013.2 |
| 20260506131524 | 13 | 72 | 4.8 | 16.1 | 0.00 | 0.00 | 0.00 | 69 | 1013.1 |
| 20260506131008 | 13 | 53 | 6.4 | 16.1 | 0.00 | 0.00 | 0.00 | 67 | 1013.2 |
| 20260506130515 | 13 | 58 | 4.8 | 14.5 | 0.00 | 0.00 | 0.00 | 68 | 1013.1 |
| 20260506130030 | 13 | 307 | 4.8 | 14.5 | 0.00 | 0.00 | 0.00 | 67 | 1013.2 |
| 20260506125505 | 13 | 88 | 4.8 | 16.1 | 0.00 | 0.00 | 0.00 | 68 | 1013.1 |
| 20260506125003 | 13 | 48 | 3.2 | 16.1 | 0.00 | 0.00 | 0.00 | 66 | 1013.0 |
| 20260506124517 | 13 | 348 | 3.2 | 14.5 | 0.00 | 0.00 | 0.00 | 65 | 1013.1 |
| 20260506124004 | 13 | 90 | 3.2 | 14.5 | 0.00 | 0.00 | 0.00 | 66 | 1012.9 |
| 20260506123505 | 13 | 36 | 4.8 | 14.5 | 0.00 | 0.00 | 0.00 | 65 | 1013.0 |
| 20260506123022 | 13 | 198 | 4.8 | 16.1 | 0.00 | 0.00 | 0.00 | 66 | 1012.9 |
| 20260506122508 | 13 | 52 | 3.2 | 16.1 | 0.00 | 0.00 | 0.00 | 69 | 1012.9 |
| 20260506122012 | 13 | 76 | 4.8 | 11.3 | 0.00 | 0.00 | 0.00 | 68 | 1012.9 |
| 20260506121527 | 13 | 61 | 3.2 | 14.5 | 0.00 | 0.00 | 0.00 | 67 | 1012.8 |
| 20260506121010 | 13 | 333 | 3.2 | 16.1 | 0.00 | 0.00 | 0.00 | 68 | 1012.8 |
| 20260506120515 | 13 | 79 | 4.8 | 16.1 | 0.00 | 0.00 | 0.00 | 68 | 1012.8 |
| 20260506120022 | 13 | 93 | 3.2 | 16.1 | 0.00 | 0.00 | 0.00 | 67 | 1012.8 |
| 20260506115508 | 13 | 46 | 3.2 | 16.1 | 0.00 | 0.00 | 0.00 | 68 | 1012.8 |
| 20260506115013 | 13 | 105 | 3.2 | 12.9 | 0.00 | 0.00 | 0.00 | 67 | 1012.8 |
| 20260506114521 | 13 | 55 | 3.2 | 12.9 | 0.00 | 0.00 | 0.00 | 66 | 1012.8 |